| time (UTC) | temp F | wind direction | speed MPH | gust MPH | rain 1hr in | rain 24hr in | rain mn in | humidity % | barometer mb |
| 20260503202316 | 62 | 326 | 4.0 | 4.0 | 0.00 | 0.00 | 0.00 | 59 | 1009.2 |
| 20260503202239 | 62 | 326 | 4.0 | 4.0 | 0.00 | 0.00 | 0.00 | 59 | 1009.2 |
| 20260503201835 | 62 | 270 | 1.0 | 6.0 | 0.00 | 0.00 | 0.00 | 62 | 1009.5 |
| 20260503201633 | 62 | 281 | 4.0 | 126.0 | 0.00 | 0.00 | 0.00 | 57 | 1009.0 |
| 20260503201430 | 62 | 315 | 0.0 | 126.0 | 0.00 | 0.00 | 0.00 | 54 | 1009.3 |
| 20260503201328 | 62 | 292 | 126.0 | 126.0 | 0.00 | 0.00 | 0.00 | 58 | 1009.5 |
| 20260503201125 | 62 | 225 | 3.0 | 3.0 | 0.00 | 0.00 | 0.00 | 57 | 1008.8 |
| 20260503200922 | 62 | 292 | 1.0 | 3.0 | 0.00 | 0.00 | 0.00 | 57 | 1008.9 |
| 20260503200720 | 62 | 292 | 3.0 | 5.0 | 0.00 | 0.00 | 0.00 | 58 | 1008.9 |
| 20260503200214 | 62 | 303 | 130.0 | 130.0 | 0.00 | 0.00 | 0.00 | 58 | 1009.1 |
| 20260503200022 | 62 | 292 | 3.0 | 7.0 | 0.00 | 0.00 | 0.00 | 59 | 1008.8 |
| 20260503195415 | 62 | 315 | 3.0 | 126.0 | 0.00 | 0.00 | 0.00 | 58 | 1009.1 |
| 20260503194752 | 62 | 0 | 2.0 | 4.0 | 0.00 | 0.00 | 0.00 | 53 | 1008.8 |
| 20260503194144 | 62 | 292 | 4.0 | 7.0 | 0.00 | 0.00 | 0.00 | 59 | 1008.9 |
| 20260503193942 | 62 | 292 | 3.0 | 131.0 | 0.00 | 0.00 | 0.00 | 55 | 1008.7 |
| 20260503193638 | 62 | 281 | 131.0 | 131.0 | 0.00 | 0.00 | 0.00 | 54 | 1008.5 |
| 20260503193137 | 62 | 326 | 6.0 | 9.0 | 0.00 | 0.00 | 0.00 | 58 | 1008.5 |
| 20260503192934 | 62 | 247 | 4.0 | 6.0 | 0.00 | 0.00 | 0.00 | 57 | 1008.6 |
| 20260503192732 | 62 | 292 | 2.0 | 4.0 | 0.00 | 0.00 | 0.00 | 55 | 1008.4 |
| 20260503192530 | 62 | 292 | 2.0 | 5.0 | 0.00 | 0.00 | 0.00 | 55 | 1008.4 |
| 20260503192125 | 62 | 258 | 2.0 | 2.0 | 0.00 | 0.00 | 0.00 | 59 | 1008.5 |
| 20260503192038 | 62 | 292 | 4.0 | 6.0 | 0.00 | 0.00 | 0.00 | 58 | 1008.4 |
| 20260503191834 | 62 | 292 | 4.0 | 6.0 | 0.00 | 0.00 | 0.00 | 56 | 1008.5 |
| 20260503191429 | 62 | 225 | 1.0 | 4.0 | 0.00 | 0.00 | 0.00 | 56 | 1008.6 |
| 20260503191227 | 62 | 315 | 1.0 | 2.0 | 0.00 | 0.00 | 0.00 | 59 | 1008.3 |
| 20260503191025 | 62 | 292 | 1.0 | 2.0 | 0.00 | 0.00 | 0.00 | 53 | 1008.4 |
| 20260503190857 | 62 | 270 | 2.0 | 2.0 | 0.00 | 0.00 | 0.00 | 57 | 1008.6 |
| 20260503190822 | 62 | 270 | 2.0 | 2.0 | 0.00 | 0.00 | 0.00 | 57 | 1008.6 |
| 20260503190620 | 62 | 225 | 0.0 | 2.0 | 0.00 | 0.00 | 0.00 | 58 | 1008.5 |
| 20260503190216 | 62 | 225 | 1.0 | 125.0 | 0.00 | 0.00 | 0.00 | 56 | 1008.5 |
| 20260503190114 | 62 | 225 | 125.0 | 125.0 | 0.00 | 0.00 | 0.00 | 53 | 1008.3 |
| 20260503185946 | 62 | 225 | 1.0 | 3.0 | 0.00 | 0.00 | 0.00 | 57 | 1008.2 |
| 20260503185743 | 62 | 225 | 1.0 | 3.0 | 0.00 | 0.00 | 0.00 | 57 | 1007.8 |
| 20260503185339 | 62 | 45 | 2.0 | 124.0 | 0.00 | 0.00 | 0.00 | 57 | 1008.3 |
| 20260503185137 | 62 | 225 | 4.0 | 124.0 | 0.00 | 0.00 | 0.00 | 56 | 1008.2 |
| 20260503184840 | 61 | 292 | 4.0 | 4.0 | 0.00 | 0.00 | 0.00 | 52 | 1008.2 |
| 20260503184233 | 61 | 303 | 3.0 | 7.0 | 0.00 | 0.00 | 0.00 | 56 | 1008.0 |
| 20260503184031 | 62 | 326 | 5.0 | 9.0 | 0.00 | 0.00 | 0.00 | 55 | 1007.7 |
| 20260503183829 | 62 | 326 | 6.0 | 9.0 | 0.00 | 0.00 | 0.00 | 56 | 1007.9 |
| 20260503183627 | 62 | 0 | 9.0 | 9.0 | 0.00 | 0.00 | 0.00 | 57 | 1007.9 |
| 20260503183337 | 62 | 0 | 6.0 | 7.0 | 0.00 | 0.00 | 0.00 | 55 | 1007.9 |
| 20260503182729 | 62 | 326 | 4.0 | 4.0 | 0.00 | 0.00 | 0.00 | 59 | 1007.5 |
| 20260503182712 | 62 | 337 | 7.0 | 129.0 | 0.00 | 0.00 | 0.00 | 56 | 1007.5 |
| 20260503182609 | 62 | 45 | 129.0 | 129.0 | 0.00 | 0.00 | 0.00 | 56 | 1007.5 |
| 20260503182459 | 62 | 247 | 3.0 | 7.0 | 0.00 | 0.00 | 0.00 | 57 | 1007.8 |
| 20260503182257 | 62 | 270 | 5.0 | 7.0 | 0.00 | 0.00 | 0.00 | 56 | 1007.8 |
| 20260503182055 | 62 | 0 | 7.0 | 8.0 | 0.00 | 0.00 | 0.00 | 56 | 1007.8 |
| 20260503181852 | 62 | 292 | 5.0 | 130.0 | 0.00 | 0.00 | 0.00 | 55 | 1007.9 |
| 20260503181650 | 62 | 236 | 6.0 | 130.0 | 0.00 | 0.00 | 0.00 | 56 | 1007.6 |
| 20260503181548 | 62 | 236 | 130.0 | 130.0 | 0.00 | 0.00 | 0.00 | 55 | 1007.6 |
| 20260503180800 | 62 | 236 | 4.0 | 13.0 | 0.00 | 0.00 | 0.00 | 56 | 1007.2 |
| 20260503180355 | 62 | 270 | 6.0 | 9.0 | 0.00 | 0.00 | 0.00 | 55 | 1007.5 |
| 20260503180153 | 62 | 236 | 9.0 | 12.0 | 0.00 | 0.00 | 0.00 | 55 | 1007.7 |
| 20260503175546 | 62 | 326 | 7.0 | 9.0 | 0.00 | 0.00 | 0.00 | 56 | 1007.6 |
| 20260503175344 | 63 | 281 | 4.0 | 8.0 | 0.00 | 0.00 | 0.00 | 57 | 1007.8 |
| 20260503174737 | 63 | 270 | 9.0 | 12.0 | 0.00 | 0.00 | 0.00 | 56 | 1007.5 |
| 20260503174332 | 63 | 292 | 8.0 | 9.0 | 0.00 | 0.00 | 0.00 | 52 | 1007.8 |
| 20260503174130 | 63 | 247 | 6.0 | 9.0 | 0.00 | 0.00 | 0.00 | 56 | 1008.0 |
| 20260503173726 | 63 | 292 | 4.0 | 10.0 | 0.00 | 0.00 | 0.00 | 55 | 1007.7 |
| 20260503173524 | 63 | 247 | 5.0 | 5.0 | 0.00 | 0.00 | 0.00 | 56 | 1008.0 |
| 20260503173205 | 63 | 225 | 7.0 | 11.0 | 0.00 | 0.00 | 0.00 | 55 | 1007.5 |
| 20260503172559 | 63 | 292 | 3.0 | 4.0 | 0.00 | 0.00 | 0.00 | 57 | 1007.6 |
| 20260503172356 | 63 | 247 | 4.0 | 4.0 | 0.00 | 0.00 | 0.00 | 58 | 1008.2 |
| 20260503172215 | 63 | 315 | 2.0 | 9.0 | 0.00 | 0.00 | 0.00 | 54 | 1007.9 |
| 20260503172014 | 63 | 0 | 8.0 | 9.0 | 0.00 | 0.00 | 0.00 | 56 | 1008.2 |
| 20260503171609 | 63 | 292 | 6.0 | 9.0 | 0.00 | 0.00 | 0.00 | 57 | 1008.2 |
| 20260503171407 | 63 | 281 | 5.0 | 127.0 | 0.00 | 0.00 | 0.00 | 57 | 1008.0 |
| 20260503171205 | 63 | 303 | 4.0 | 127.0 | 0.00 | 0.00 | 0.00 | 57 | 1008.3 |
| 20260503171103 | 63 | 292 | 127.0 | 127.0 | 0.00 | 0.00 | 0.00 | 56 | 1008.3 |
| 20260503170943 | 63 | 292 | 6.0 | 7.0 | 0.00 | 0.00 | 0.00 | 52 | 1008.2 |
| 20260503170740 | 63 | 247 | 6.0 | 10.0 | 0.00 | 0.00 | 0.00 | 57 | 1008.1 |
| 20260503170335 | 63 | 326 | 5.0 | 9.0 | 0.00 | 0.00 | 0.00 | 56 | 1008.3 |
| 20260503170134 | 63 | 292 | 9.0 | 128.0 | 0.00 | 0.00 | 0.00 | 56 | 1008.6 |
| 20260503150952 | 67 | 292 | 13.0 | 17.0 | 0.00 | 0.00 | 0.00 | 50 | 1009.3 |
| 20260503150753 | 67 | 303 | 9.0 | 18.0 | 0.00 | 0.00 | 0.00 | 51 | 1009.4 |
| 20260503150547 | 67 | 303 | 6.0 | 18.0 | 0.00 | 0.00 | 0.00 | 51 | 1009.3 |
| 20260503150354 | 67 | 292 | 18.0 | 18.0 | 0.00 | 0.00 | 0.00 | 50 | 1009.2 |
| 20260503150202 | 67 | 292 | 9.0 | 18.0 | 0.00 | 0.00 | 0.00 | 51 | 1009.3 |
| 20260503140237 | 67 | 315 | 9.0 | 134.0 | 0.00 | 0.00 | 0.00 | 46 | 1009.9 |
| 20260503140135 | 67 | 315 | 134.0 | 134.0 | 0.00 | 0.00 | 0.00 | 47 | 1009.9 |
| 20260503131352 | 73 | 315 | 4.0 | 14.0 | 0.00 | 0.00 | 0.00 | 40 | 1010.0 |
| 20260503130745 | 73 | 315 | 8.0 | 11.0 | 0.00 | 0.00 | 0.00 | 40 | 1010.1 |
| 20260503130431 | 73 | 315 | 11.0 | 15.0 | 0.00 | 0.00 | 0.00 | 39 | 1010.1 |
| 20260503130228 | 73 | 315 | 11.0 | 15.0 | 0.00 | 0.00 | 0.00 | 41 | 1010.1 |
| 20260503110728 | 70 | 337 | 15.0 | 16.0 | 0.00 | 0.00 | 0.00 | 40 | 1011.3 |
| 20260503110122 | 70 | 315 | 13.0 | 16.0 | 0.00 | 0.00 | 0.00 | 40 | 1011.4 |
| 20260503100217 | 71 | 315 | 10.0 | 12.0 | 0.00 | 0.00 | 0.00 | 41 | 1011.7 |
| 20260503090508 | 72 | 315 | 7.0 | 10.0 | 0.00 | 0.00 | 0.00 | 40 | 1011.7 |
| 20260503090306 | 72 | 315 | 6.0 | 15.0 | 0.00 | 0.00 | 0.00 | 39 | 1011.7 |
| 20260503081451 | 78 | 315 | 6.0 | 13.0 | 0.00 | 0.00 | 0.00 | 35 | 1011.5 |
| 20260503081249 | 78 | 315 | 11.0 | 13.0 | 0.00 | 0.00 | 0.00 | 36 | 1011.5 |
| 20260503081047 | 78 | 315 | 7.0 | 13.0 | 0.00 | 0.00 | 0.00 | 37 | 1011.5 |
| 20260503080845 | 78 | 315 | 7.0 | 13.0 | 0.00 | 0.00 | 0.00 | 37 | 1011.6 |
| 20260503080642 | 78 | 315 | 12.0 | 13.0 | 0.00 | 0.00 | 0.00 | 38 | 1011.5 |
| 20260503072742 | 75 | 303 | 4.0 | 4.0 | 0.00 | 0.00 | 0.00 | 43 | 1011.4 |
| 20260503072539 | 74 | 292 | 1.0 | 5.0 | 0.00 | 0.00 | 0.00 | 43 | 1011.6 |
| 20260503072337 | 74 | 326 | 3.0 | 5.0 | 0.00 | 0.00 | 0.00 | 45 | 1011.4 |
| 20260503071932 | 74 | 303 | 1.0 | 1.0 | 0.00 | 0.00 | 0.00 | 45 | 1011.6 |
| 20260503071717 | 73 | 0 | 0.0 | 2.0 | 0.00 | 0.00 | 0.00 | 46 | 1011.5 |
| 20260503071514 | 73 | 326 | 1.0 | 2.0 | 0.00 | 0.00 | 0.00 | 46 | 1011.5 |
| 20260503071028 | 72 | 315 | 1.0 | 2.0 | 0.00 | 0.00 | 0.00 | 48 | 1011.4 |
| 20260503070826 | 72 | 315 | 1.0 | 3.0 | 0.00 | 0.00 | 0.00 | 48 | 1011.4 |
| 20260503070421 | 71 | 303 | 3.0 | 3.0 | 0.00 | 0.00 | 0.00 | 47 | 1011.3 |
| 20260503070219 | 71 | 225 | 0.0 | 1.0 | 0.00 | 0.00 | 0.00 | 49 | 1011.3 |
| 20260503060205 | 60 | 225 | 3.0 | 4.0 | 0.00 | 0.00 | 0.00 | 59 | 1011.1 |
| 20260503055051 | 60 | 225 | 128.0 | 128.0 | 0.00 | 0.00 | 0.00 | 56 | 1011.1 |
| 20260503054958 | 60 | 225 | 4.0 | 4.0 | 0.00 | 0.00 | 0.00 | 58 | 1011.2 |
| 20260503054755 | 60 | 236 | 2.0 | 3.0 | 0.00 | 0.00 | 0.00 | 58 | 1011.0 |
| 20260503054552 | 60 | 225 | 2.0 | 4.0 | 0.00 | 0.00 | 0.00 | 56 | 1011.1 |
| 20260503054349 | 60 | 236 | 3.0 | 4.0 | 0.00 | 0.00 | 0.00 | 58 | 1011.0 |
| 20260503054222 | 60 | 292 | 4.0 | 4.0 | 0.00 | 0.00 | 0.00 | 57 | 1010.9 |
| 20260503054149 | 60 | 292 | 4.0 | 4.0 | 0.00 | 0.00 | 0.00 | 57 | 1010.9 |
| 20260503053744 | 60 | 236 | 3.0 | 4.0 | 0.00 | 0.00 | 0.00 | 54 | 1011.1 |
| 20260503053542 | 60 | 247 | 4.0 | 4.0 | 0.00 | 0.00 | 0.00 | 60 | 1011.0 |
| 20260503053340 | 60 | 247 | 2.0 | 2.0 | 0.00 | 0.00 | 0.00 | 53 | 1011.0 |
| 20260503052903 | 60 | 225 | 3.0 | 4.0 | 0.00 | 0.00 | 0.00 | 55 | 1010.7 |
| 20260503052812 | 60 | 225 | 3.0 | 4.0 | 0.00 | 0.00 | 0.00 | 55 | 1010.7 |
| 20260503052407 | 60 | 247 | 3.0 | 4.0 | 0.00 | 0.00 | 0.00 | 54 | 1011.1 |
| 20260503052207 | 60 | 247 | 3.0 | 4.0 | 0.00 | 0.00 | 0.00 | 55 | 1011.2 |
| 20260503051700 | 60 | 225 | 127.0 | 127.0 | 0.00 | 0.00 | 0.00 | 58 | 1010.8 |
| 20260503051605 | 60 | 225 | 2.0 | 4.0 | 0.00 | 0.00 | 0.00 | 58 | 1011.1 |
| 20260503051403 | 61 | 225 | 4.0 | 4.0 | 0.00 | 0.00 | 0.00 | 57 | 1010.6 |
| 20260503050958 | 61 | 225 | 4.0 | 5.0 | 0.00 | 0.00 | 0.00 | 57 | 1011.0 |
| 20260503050755 | 61 | 225 | 5.0 | 5.0 | 0.00 | 0.00 | 0.00 | 57 | 1011.0 |
| 20260503050553 | 61 | 225 | 3.0 | 5.0 | 0.00 | 0.00 | 0.00 | 56 | 1010.6 |
| 20260503050359 | 61 | 247 | 3.0 | 5.0 | 0.00 | 0.00 | 0.00 | 58 | 1011.0 |
| 20260503050150 | 61 | 225 | 4.0 | 5.0 | 0.00 | 0.00 | 0.00 | 58 | 1010.7 |
| 20260503050147 | 61 | 225 | 4.0 | 5.0 | 0.00 | 0.00 | 0.00 | 58 | 1010.7 |
| 20260503045745 | 61 | 225 | 3.0 | 126.0 | 0.00 | 0.00 | 0.00 | 57 | 1011.0 |
| 20260503045546 | 61 | 225 | 2.0 | 3.0 | 0.00 | 0.00 | 0.00 | 56 | 1010.8 |
| 20260503045541 | 61 | 225 | 1.0 | 126.0 | 0.00 | 0.00 | 0.00 | 58 | 1010.8 |
| 20260503045513 | 61 | 225 | 2.0 | 3.0 | 0.00 | 0.00 | 0.00 | 56 | 1010.8 |
| 20260503045439 | 61 | 225 | 126.0 | 126.0 | 0.00 | 0.00 | 0.00 | 57 | 1011.0 |
| 20260503045354 | 61 | 225 | 2.0 | 3.0 | 0.00 | 0.00 | 0.00 | 56 | 1010.8 |
| 20260503045154 | 61 | 225 | 2.0 | 2.0 | 0.00 | 0.00 | 0.00 | 57 | 1011.2 |
| 20260503044748 | 61 | 236 | 2.0 | 2.0 | 0.00 | 0.00 | 0.00 | 56 | 1011.0 |
| 20260503044547 | 61 | 236 | 0.0 | 0.0 | 0.00 | 0.00 | 0.00 | 56 | 1010.8 |
| 20260503044343 | 61 | 225 | 0.0 | 0.0 | 0.00 | 0.00 | 0.00 | 57 | 1011.1 |
| 20260503044141 | 61 | 225 | 0.0 | 0.0 | 0.00 | 0.00 | 0.00 | 57 | 1011.2 |
| 20260503043940 | 61 | 225 | 0.0 | 124.0 | 0.00 | 0.00 | 0.00 | 56 | 1011.1 |
| 20260503043738 | 61 | 236 | 0.0 | 124.0 | 0.00 | 0.00 | 0.00 | 56 | 1011.2 |
| 20260503043534 | 61 | 225 | 124.0 | 124.0 | 0.00 | 0.00 | 0.00 | 54 | 1011.0 |
| 20260503043330 | 61 | 225 | 0.0 | 0.0 | 0.00 | 0.00 | 0.00 | 53 | 1011.2 |
| 20260503042723 | 61 | 225 | 0.0 | 0.0 | 0.00 | 0.00 | 0.00 | 58 | 1011.3 |
| 20260503042521 | 61 | 225 | 0.0 | 0.0 | 0.00 | 0.00 | 0.00 | 57 | 1011.1 |
| 20260503042320 | 61 | 225 | 0.0 | 0.0 | 0.00 | 0.00 | 0.00 | 57 | 1011.2 |
| 20260503042118 | 61 | 337 | 0.0 | 0.0 | 0.00 | 0.00 | 0.00 | 56 | 1011.0 |
| 20260503042047 | 61 | 292 | 0.0 | 0.0 | 0.00 | 0.00 | 0.00 | 57 | 1011.2 |
| 20260503041844 | 61 | 292 | 0.0 | 0.0 | 0.00 | 0.00 | 0.00 | 57 | 1011.1 |
| 20260503041642 | 61 | 315 | 0.0 | 2.0 | 0.00 | 0.00 | 0.00 | 58 | 1011.1 |
| 20260503041310 | 61 | 236 | 2.0 | 4.0 | 0.00 | 0.00 | 0.00 | 58 | 1011.5 |
| 20260503041237 | 61 | 236 | 2.0 | 4.0 | 0.00 | 0.00 | 0.00 | 58 | 1011.5 |
| 20260503041035 | 61 | 247 | 4.0 | 4.0 | 0.00 | 0.00 | 0.00 | 57 | 1011.3 |
| 20260503040832 | 61 | 348 | 3.0 | 126.0 | 0.00 | 0.00 | 0.00 | 57 | 1010.7 |
| 20260503040630 | 61 | 315 | 2.0 | 126.0 | 0.00 | 0.00 | 0.00 | 55 | 1010.9 |
| 20260503040528 | 61 | 270 | 126.0 | 126.0 | 0.00 | 0.00 | 0.00 | 55 | 1010.9 |
| 20260503040428 | 61 | 315 | 1.0 | 2.0 | 0.00 | 0.00 | 0.00 | 59 | 1011.0 |
| 20260503040310 | 61 | 315 | 0.0 | 0.0 | 0.00 | 0.00 | 0.00 | 55 | 1011.2 |
| 20260503040226 | 61 | 315 | 0.0 | 0.0 | 0.00 | 0.00 | 0.00 | 55 | 1011.2 |
| 20260503040024 | 61 | 225 | 0.0 | 0.0 | 0.00 | 0.00 | 0.00 | 57 | 1011.0 |
| 20260503035620 | 61 | 225 | 0.0 | 2.0 | 0.00 | 0.00 | 0.00 | 58 | 1010.9 |
| 20260503035417 | 61 | 270 | 1.0 | 3.0 | 0.00 | 0.00 | 0.00 | 58 | 1011.3 |
| 20260503035217 | 61 | 303 | 3.0 | 4.0 | 0.00 | 0.00 | 0.00 | 55 | 1011.1 |
| 20260503035014 | 61 | 292 | 4.0 | 4.0 | 0.00 | 0.00 | 0.00 | 55 | 1011.2 |
| 20260503034811 | 61 | 315 | 2.0 | 2.0 | 0.00 | 0.00 | 0.00 | 57 | 1010.8 |
| 20260503034407 | 61 | 225 | 0.0 | 1.0 | 0.00 | 0.00 | 0.00 | 54 | 1011.0 |
| 20260503034205 | 61 | 225 | 1.0 | 2.0 | 0.00 | 0.00 | 0.00 | 57 | 1011.2 |
| 20260503034010 | 61 | 225 | 2.0 | 2.0 | 0.00 | 0.00 | 0.00 | 56 | 1011.1 |
| 20260503033856 | 61 | 225 | 1.0 | 2.0 | 0.00 | 0.00 | 0.00 | 55 | 1011.2 |
| 20260503033758 | 61 | 225 | 1.0 | 2.0 | 0.00 | 0.00 | 0.00 | 55 | 1011.2 |
| 20260503033152 | 62 | 303 | 1.0 | 124.0 | 0.00 | 0.00 | 0.00 | 55 | 1011.2 |
| 20260503033051 | 62 | 292 | 124.0 | 124.0 | 0.00 | 0.00 | 0.00 | 56 | 1011.2 |
| 20260503032935 | 61 | 326 | 0.0 | 1.0 | 0.00 | 0.00 | 0.00 | 54 | 1011.2 |
| 20260503032821 | 61 | 292 | 0.0 | 2.0 | 0.00 | 0.00 | 0.00 | 56 | 1011.0 |
| 20260503032732 | 61 | 292 | 0.0 | 2.0 | 0.00 | 0.00 | 0.00 | 56 | 1011.0 |
| 20260503032531 | 61 | 315 | 1.0 | 2.0 | 0.00 | 0.00 | 0.00 | 58 | 1011.0 |
| 20260503032126 | 61 | 315 | 1.0 | 2.0 | 0.00 | 0.00 | 0.00 | 57 | 1010.9 |
| 20260503031924 | 62 | 303 | 2.0 | 3.0 | 0.00 | 0.00 | 0.00 | 56 | 1011.0 |
| 20260503031722 | 61 | 315 | 1.0 | 3.0 | 0.00 | 0.00 | 0.00 | 57 | 1010.8 |
| 20260503031342 | 62 | 303 | 3.0 | 3.0 | 0.00 | 0.00 | 0.00 | 57 | 1011.1 |
| 20260503031138 | 62 | 326 | 0.0 | 1.0 | 0.00 | 0.00 | 0.00 | 57 | 1010.4 |
| 20260503030733 | 62 | 303 | 0.0 | 1.0 | 0.00 | 0.00 | 0.00 | 56 | 1010.9 |
| 20260503030621 | 61 | 292 | 1.0 | 1.0 | 0.00 | 0.00 | 0.00 | 57 | 1010.8 |
| 20260503030531 | 61 | 292 | 1.0 | 1.0 | 0.00 | 0.00 | 0.00 | 57 | 1010.8 |
| 20260503030331 | 61 | 292 | 0.0 | 124.0 | 0.00 | 0.00 | 0.00 | 54 | 1010.7 |
| 20260503030127 | 61 | 292 | 1.0 | 124.0 | 0.00 | 0.00 | 0.00 | 53 | 1010.9 |
| 20260503025834 | 61 | 0 | 0.0 | 1.0 | 0.00 | 0.00 | 0.00 | 56 | 1011.0 |
| 20260503025633 | 61 | 0 | 1.0 | 1.0 | 0.00 | 0.00 | 0.00 | 56 | 1010.9 |
| 20260503025431 | 61 | 0 | 0.0 | 1.0 | 0.00 | 0.00 | 0.00 | 58 | 1010.7 |
| 20260503025227 | 61 | 315 | 1.0 | 1.0 | 0.00 | 0.00 | 0.00 | 56 | 1010.9 |
| 20260503025026 | 61 | 292 | 0.0 | 1.0 | 0.00 | 0.00 | 0.00 | 57 | 1011.1 |
| 20260503024823 | 61 | 315 | 1.0 | 125.0 | 0.00 | 0.00 | 0.00 | 58 | 1010.9 |
| 20260503024630 | 61 | 326 | 2.0 | 125.0 | 0.00 | 0.00 | 0.00 | 56 | 1011.0 |
| 20260503024520 | 61 | 247 | 125.0 | 125.0 | 0.00 | 0.00 | 0.00 | 59 | 1011.1 |
| 20260503024438 | 61 | 292 | 2.0 | 2.0 | 0.00 | 0.00 | 0.00 | 58 | 1011.1 |
| 20260503024309 | 61 | 0 | 0.0 | 0.0 | 0.00 | 0.00 | 0.00 | 56 | 1011.2 |
| 20260503024229 | 61 | 0 | 0.0 | 0.0 | 0.00 | 0.00 | 0.00 | 56 | 1011.2 |
| 20260503023826 | 61 | 270 | 0.0 | 0.0 | 0.00 | 0.00 | 0.00 | 58 | 1011.3 |
| 20260503023624 | 61 | 225 | 0.0 | 0.0 | 0.00 | 0.00 | 0.00 | 56 | 1011.3 |
| 20260503023420 | 61 | 225 | 0.0 | 0.0 | 0.00 | 0.00 | 0.00 | 58 | 1011.3 |
| 20260503023218 | 61 | 225 | 0.0 | 0.0 | 0.00 | 0.00 | 0.00 | 58 | 1011.0 |
| 20260503023128 | 61 | 225 | 0.0 | 3.0 | 0.00 | 0.00 | 0.00 | 58 | 1011.4 |
| 20260503023016 | 61 | 225 | 0.0 | 3.0 | 0.00 | 0.00 | 0.00 | 58 | 1011.4 |
| 20260503022815 | 61 | 0 | 2.0 | 3.0 | 0.00 | 0.00 | 0.00 | 59 | 1011.2 |
| 20260503022409 | 61 | 247 | 0.0 | 125.0 | 0.00 | 0.00 | 0.00 | 57 | 1011.5 |
| 20260503022208 | 61 | 11 | 0.0 | 125.0 | 0.00 | 0.00 | 0.00 | 58 | 1011.2 |
| 20260503022037 | 61 | 303 | 125.0 | 125.0 | 0.00 | 0.00 | 0.00 | 58 | 1011.2 |
| 20260503022004 | 61 | 303 | 125.0 | 125.0 | 0.00 | 0.00 | 0.00 | 58 | 1011.2 |
| 20260503021652 | 61 | 281 | 3.0 | 3.0 | 0.00 | 0.00 | 0.00 | 58 | 1011.4 |
| 20260503021447 | 61 | 281 | 2.0 | 3.0 | 0.00 | 0.00 | 0.00 | 55 | 1011.4 |
| 20260503021247 | 61 | 326 | 2.0 | 2.0 | 0.00 | 0.00 | 0.00 | 57 | 1011.2 |
| 20260503020841 | 61 | 281 | 2.0 | 2.0 | 0.00 | 0.00 | 0.00 | 58 | 1011.5 |
| 20260503020640 | 61 | 225 | 0.0 | 0.0 | 0.00 | 0.00 | 0.00 | 57 | 1011.6 |
| 20260503020456 | 60 | 247 | 1.0 | 3.0 | 0.00 | 0.00 | 0.00 | 57 | 1011.6 |
| 20260503020331 | 60 | 292 | 2.0 | 5.0 | 0.00 | 0.00 | 0.00 | 57 | 1011.3 |
| 20260503020253 | 60 | 292 | 2.0 | 5.0 | 0.00 | 0.00 | 0.00 | 57 | 1011.3 |
| 20260503020130 | 61 | 303 | 2.0 | 5.0 | 0.00 | 0.00 | 0.00 | 54 | 1011.1 |
| 20260503020051 | 61 | 303 | 2.0 | 5.0 | 0.00 | 0.00 | 0.00 | 54 | 1011.1 |
| 20260503015647 | 61 | 292 | 3.0 | 4.0 | 0.00 | 0.00 | 0.00 | 57 | 1011.5 |
| 20260503015041 | 61 | 303 | 4.0 | 4.0 | 0.00 | 0.00 | 0.00 | 58 | 1011.3 |
| 20260503014838 | 61 | 303 | 3.0 | 6.0 | 0.00 | 0.00 | 0.00 | 56 | 1011.5 |
| 20260503014638 | 61 | 292 | 5.0 | 6.0 | 0.00 | 0.00 | 0.00 | 57 | 1011.3 |
| 20260503014440 | 61 | 303 | 6.0 | 6.0 | 0.00 | 0.00 | 0.00 | 57 | 1010.9 |
| 20260503014358 | 61 | 292 | 5.0 | 5.0 | 0.00 | 0.00 | 0.00 | 57 | 1011.2 |
| 20260503014156 | 61 | 326 | 2.0 | 2.0 | 0.00 | 0.00 | 0.00 | 55 | 1011.4 |
| 20260503013952 | 61 | 247 | 0.0 | 2.0 | 0.00 | 0.00 | 0.00 | 57 | 1011.2 |
| 20260503013751 | 61 | 292 | 2.0 | 6.0 | 0.00 | 0.00 | 0.00 | 56 | 1011.3 |
| 20260503013547 | 61 | 292 | 3.0 | 7.0 | 0.00 | 0.00 | 0.00 | 55 | 1011.4 |
| 20260503013347 | 62 | 281 | 6.0 | 7.0 | 0.00 | 0.00 | 0.00 | 56 | 1011.4 |
| 20260503013148 | 62 | 303 | 5.0 | 7.0 | 0.00 | 0.00 | 0.00 | 51 | 1011.5 |
| 20260503012948 | 62 | 292 | 4.0 | 4.0 | 0.00 | 0.00 | 0.00 | 57 | 1011.5 |
| 20260503012727 | 62 | 326 | 5.0 | 5.0 | 0.00 | 0.00 | 0.00 | 56 | 1011.5 |
| 20260503012558 | 62 | 292 | 4.0 | 4.0 | 0.00 | 0.00 | 0.00 | 61 | 1011.2 |
| 20260503012525 | 62 | 292 | 4.0 | 4.0 | 0.00 | 0.00 | 0.00 | 61 | 1011.2 |
| 20260503012322 | 62 | 315 | 0.0 | 1.0 | 0.00 | 0.00 | 0.00 | 54 | 1011.3 |
| 20260503012120 | 62 | 236 | 0.0 | 2.0 | 0.00 | 0.00 | 0.00 | 51 | 1011.3 |
| 20260503011918 | 62 | 236 | 0.0 | 3.0 | 0.00 | 0.00 | 0.00 | 55 | 1011.2 |
| 20260503011716 | 62 | 247 | 1.0 | 3.0 | 0.00 | 0.00 | 0.00 | 56 | 1010.9 |
| 20260503011521 | 62 | 247 | 1.0 | 1.0 | 0.00 | 0.00 | 0.00 | 55 | 1011.2 |
| 20260503011330 | 62 | 247 | 2.0 | 2.0 | 0.00 | 0.00 | 0.00 | 55 | 1011.1 |
| 20260503011128 | 62 | 247 | 1.0 | 3.0 | 0.00 | 0.00 | 0.00 | 54 | 1011.4 |
| 20260503010925 | 62 | 247 | 2.0 | 3.0 | 0.00 | 0.00 | 0.00 | 56 | 1011.5 |
| 20260503010721 | 62 | 45 | 0.0 | 1.0 | 0.00 | 0.00 | 0.00 | 55 | 1011.6 |
| 20260503010521 | 62 | 11 | 0.0 | 1.0 | 0.00 | 0.00 | 0.00 | 54 | 1011.5 |
| 20260503010317 | 62 | 292 | 0.0 | 124.0 | 0.00 | 0.00 | 0.00 | 57 | 1011.7 |
| 20260503010116 | 62 | 303 | 0.0 | 124.0 | 0.00 | 0.00 | 0.00 | 57 | 1011.8 |
| 20260503005756 | 62 | 292 | 0.0 | 1.0 | 0.00 | 0.00 | 0.00 | 54 | 1011.8 |
| 20260503005555 | 62 | 303 | 1.0 | 3.0 | 0.00 | 0.00 | 0.00 | 55 | 1011.8 |
| 20260503005353 | 62 | 337 | 1.0 | 3.0 | 0.00 | 0.00 | 0.00 | 55 | 1011.8 |
| 20260503004948 | 62 | 0 | 3.0 | 3.0 | 0.00 | 0.00 | 0.00 | 55 | 1012.0 |
| 20260503004619 | 62 | 292 | 1.0 | 126.0 | 0.00 | 0.00 | 0.00 | 52 | 1012.0 |
| 20260503004547 | 62 | 292 | 1.0 | 126.0 | 0.00 | 0.00 | 0.00 | 52 | 1012.0 |
| 20260503004407 | 62 | 292 | 1.0 | 1.0 | 0.00 | 0.00 | 0.00 | 57 | 1011.9 |
| 20260503004205 | 62 | 292 | 0.0 | 0.0 | 0.00 | 0.00 | 0.00 | 55 | 1012.0 |
| 20260503004004 | 62 | 247 | 0.0 | 2.0 | 0.00 | 0.00 | 0.00 | 55 | 1012.0 |
| 20260503003800 | 62 | 236 | 0.0 | 2.0 | 0.00 | 0.00 | 0.00 | 54 | 1012.2 |
| 20260503003559 | 62 | 247 | 1.0 | 124.0 | 0.00 | 0.00 | 0.00 | 56 | 1012.2 |
| 20260503003211 | 62 | 225 | 1.0 | 2.0 | 0.00 | 0.00 | 0.00 | 54 | 1012.2 |
| 20260503003008 | 62 | 225 | 2.0 | 2.0 | 0.00 | 0.00 | 0.00 | 54 | 1011.9 |
| 20260503002805 | 62 | 225 | 1.0 | 2.0 | 0.00 | 0.00 | 0.00 | 55 | 1012.3 |
| 20260503002603 | 62 | 247 | 1.0 | 125.0 | 0.00 | 0.00 | 0.00 | 55 | 1011.9 |
| 20260503002406 | 62 | 236 | 1.0 | 125.0 | 0.00 | 0.00 | 0.00 | 53 | 1012.2 |
| 20260503002258 | 62 | 225 | 125.0 | 125.0 | 0.00 | 0.00 | 0.00 | 54 | 1012.1 |
| 20260503002153 | 62 | 225 | 2.0 | 2.0 | 0.00 | 0.00 | 0.00 | 55 | 1012.4 |
| 20260503001949 | 62 | 292 | 0.0 | 1.0 | 0.00 | 0.00 | 0.00 | 55 | 1011.9 |
| 20260503001748 | 62 | 225 | 1.0 | 3.0 | 0.00 | 0.00 | 0.00 | 55 | 1012.2 |
| 20260503001544 | 62 | 236 | 1.0 | 3.0 | 0.00 | 0.00 | 0.00 | 55 | 1012.1 |
| 20260503001142 | 62 | 348 | 1.0 | 124.0 | 0.00 | 0.00 | 0.00 | 56 | 1012.3 |
| 20260503001038 | 62 | 270 | 124.0 | 124.0 | 0.00 | 0.00 | 0.00 | 57 | 1012.3 |
| 20260503000647 | 62 | 247 | 0.0 | 1.0 | 0.00 | 0.00 | 0.00 | 56 | 1012.4 |
| 20260503000444 | 62 | 292 | 0.0 | 1.0 | 0.00 | 0.00 | 0.00 | 55 | 1012.5 |
| 20260503000242 | 62 | 292 | 1.0 | 124.0 | 0.00 | 0.00 | 0.00 | 56 | 1012.7 |
| 20260502235936 | 62 | 292 | 124.0 | 124.0 | 0.00 | 0.00 | 0.00 | 55 | 1012.3 |
| 20260502235818 | 62 | 337 | 0.0 | 1.0 | 0.00 | 0.00 | 0.00 | 56 | 1012.3 |
| 20260502235724 | 62 | 337 | 0.0 | 1.0 | 0.00 | 0.00 | 0.00 | 56 | 1012.3 |
| 20260502235122 | 62 | 337 | 1.0 | 1.0 | 0.00 | 0.00 | 0.00 | 53 | 1012.6 |
| 20260502234916 | 62 | 247 | 1.0 | 2.0 | 0.00 | 0.00 | 0.00 | 54 | 1012.3 |
| 20260502234714 | 62 | 247 | 2.0 | 2.0 | 0.00 | 0.00 | 0.00 | 55 | 1012.8 |
| 20260502234325 | 62 | 225 | 2.0 | 2.0 | 0.00 | 0.00 | 0.00 | 55 | 1012.6 |
| 20260502234002 | 62 | 236 | 1.0 | 2.0 | 0.00 | 0.00 | 0.00 | 54 | 1012.7 |
| 20260502233921 | 62 | 236 | 1.0 | 2.0 | 0.00 | 0.00 | 0.00 | 54 | 1012.7 |
| 20260502233518 | 62 | 236 | 2.0 | 2.0 | 0.00 | 0.00 | 0.00 | 55 | 1012.7 |
| 20260502233223 | 62 | 225 | 0.0 | 0.0 | 0.00 | 0.00 | 0.00 | 55 | 1012.8 |
| 20260502232616 | 62 | 225 | 1.0 | 124.0 | 0.00 | 0.00 | 0.00 | 55 | 1012.9 |
| 20260502232513 | 62 | 247 | 124.0 | 124.0 | 0.00 | 0.00 | 0.00 | 54 | 1012.9 |
| 20260502232209 | 62 | 270 | 1.0 | 2.0 | 0.00 | 0.00 | 0.00 | 55 | 1012.8 |
| 20260502231803 | 62 | 315 | 2.0 | 126.0 | 0.00 | 0.00 | 0.00 | 55 | 1012.9 |
| 20260502231601 | 62 | 326 | 2.0 | 126.0 | 0.00 | 0.00 | 0.00 | 55 | 1013.1 |
| 20260502231537 | 62 | 225 | 126.0 | 126.0 | 0.00 | 0.00 | 0.00 | 54 | 1012.9 |
| 20260502231459 | 62 | 225 | 126.0 | 126.0 | 0.00 | 0.00 | 0.00 | 54 | 1012.9 |
| 20260502231441 | 62 | 303 | 1.0 | 124.0 | 0.00 | 0.00 | 0.00 | 56 | 1012.9 |
| 20260502231339 | 62 | 236 | 124.0 | 124.0 | 0.00 | 0.00 | 0.00 | 56 | 1012.8 |
| 20260502231314 | 62 | 236 | 0.0 | 1.0 | 0.00 | 0.00 | 0.00 | 55 | 1013.0 |
| 20260502231110 | 62 | 247 | 0.0 | 0.0 | 0.00 | 0.00 | 0.00 | 53 | 1012.9 |
| 20260502230908 | 62 | 247 | 0.0 | 0.0 | 0.00 | 0.00 | 0.00 | 55 | 1012.8 |
| 20260502230706 | 62 | 270 | 0.0 | 1.0 | 0.00 | 0.00 | 0.00 | 54 | 1013.0 |
| 20260502230541 | 62 | 270 | 0.0 | 3.0 | 0.00 | 0.00 | 0.00 | 55 | 1013.1 |
| 20260502230503 | 62 | 270 | 0.0 | 3.0 | 0.00 | 0.00 | 0.00 | 55 | 1013.1 |
| 20260502230301 | 62 | 303 | 0.0 | 3.0 | 0.00 | 0.00 | 0.00 | 55 | 1013.0 |
| 20260502230100 | 62 | 225 | 1.0 | 3.0 | 0.00 | 0.00 | 0.00 | 53 | 1013.0 |
| 20260502225857 | 62 | 270 | 1.0 | 3.0 | 0.00 | 0.00 | 0.00 | 54 | 1013.0 |
| 20260502225654 | 62 | 281 | 1.0 | 3.0 | 0.00 | 0.00 | 0.00 | 55 | 1013.0 |
| 20260502225452 | 62 | 326 | 1.0 | 2.0 | 0.00 | 0.00 | 0.00 | 55 | 1013.0 |
| 20260502225249 | 62 | 225 | 2.0 | 3.0 | 0.00 | 0.00 | 0.00 | 58 | 1013.0 |
| 20260502225050 | 62 | 270 | 1.0 | 3.0 | 0.00 | 0.00 | 0.00 | 55 | 1012.9 |
| 20260502224714 | 62 | 225 | 2.0 | 125.0 | 0.00 | 0.00 | 0.00 | 54 | 1012.9 |
| 20260502224643 | 62 | 225 | 2.0 | 125.0 | 0.00 | 0.00 | 0.00 | 54 | 1012.9 |
| 20260502224541 | 62 | 292 | 125.0 | 125.0 | 0.00 | 0.00 | 0.00 | 55 | 1013.0 |
| 20260502224453 | 62 | 315 | 0.0 | 2.0 | 0.00 | 0.00 | 0.00 | 56 | 1012.9 |
| 20260502224243 | 62 | 225 | 1.0 | 2.0 | 0.00 | 0.00 | 0.00 | 55 | 1013.0 |
| 20260502224041 | 62 | 292 | 0.0 | 1.0 | 0.00 | 0.00 | 0.00 | 54 | 1013.0 |
| 20260502223839 | 62 | 270 | 0.0 | 124.0 | 0.00 | 0.00 | 0.00 | 55 | 1013.0 |
| 20260502223637 | 62 | 281 | 1.0 | 124.0 | 0.00 | 0.00 | 0.00 | 54 | 1013.0 |
| 20260502223607 | 62 | 292 | 124.0 | 124.0 | 0.00 | 0.00 | 0.00 | 55 | 1013.0 |
| 20260502223533 | 62 | 292 | 124.0 | 124.0 | 0.00 | 0.00 | 0.00 | 55 | 1013.0 |
| 20260502223246 | 62 | 281 | 2.0 | 3.0 | 0.00 | 0.00 | 0.00 | 55 | 1013.1 |
| 20260502223044 | 62 | 292 | 3.0 | 3.0 | 0.00 | 0.00 | 0.00 | 54 | 1013.1 |
| 20260502222842 | 62 | 303 | 2.0 | 4.0 | 0.00 | 0.00 | 0.00 | 55 | 1013.0 |
| 20260502222712 | 62 | 292 | 3.0 | 4.0 | 0.00 | 0.00 | 0.00 | 54 | 1012.9 |
| 20260502222640 | 62 | 292 | 3.0 | 4.0 | 0.00 | 0.00 | 0.00 | 54 | 1012.9 |
| 20260502222343 | 62 | 315 | 2.0 | 2.0 | 0.00 | 0.00 | 0.00 | 55 | 1013.0 |
| 20260502222141 | 62 | 315 | 1.0 | 1.0 | 0.00 | 0.00 | 0.00 | 54 | 1012.9 |
| 20260502221736 | 62 | 236 | 2.0 | 124.0 | 0.00 | 0.00 | 0.00 | 55 | 1013.1 |
| 20260502221534 | 62 | 292 | 2.0 | 124.0 | 0.00 | 0.00 | 0.00 | 53 | 1013.2 |
| 20260502221432 | 62 | 303 | 124.0 | 124.0 | 0.00 | 0.00 | 0.00 | 53 | 1013.1 |
| 20260502221156 | 62 | 270 | 1.0 | 4.0 | 0.00 | 0.00 | 0.00 | 54 | 1013.2 |
| 20260502220751 | 62 | 270 | 2.0 | 4.0 | 0.00 | 0.00 | 0.00 | 53 | 1013.1 |
| 20260502220347 | 62 | 292 | 1.0 | 2.0 | 0.00 | 0.00 | 0.00 | 53 | 1013.2 |
| 20260502220144 | 62 | 270 | 1.0 | 2.0 | 0.00 | 0.00 | 0.00 | 54 | 1013.2 |
| 20260502215951 | 62 | 292 | 2.0 | 3.0 | 0.00 | 0.00 | 0.00 | 53 | 1013.1 |
| 20260502215741 | 62 | 270 | 1.0 | 3.0 | 0.00 | 0.00 | 0.00 | 53 | 1013.0 |
| 20260502215536 | 62 | 270 | 1.0 | 3.0 | 0.00 | 0.00 | 0.00 | 53 | 1013.1 |
| 20260502215336 | 62 | 270 | 0.0 | 3.0 | 0.00 | 0.00 | 0.00 | 53 | 1013.2 |
| 20260502215117 | 62 | 315 | 1.0 | 125.0 | 0.00 | 0.00 | 0.00 | 53 | 1013.1 |
| 20260502215014 | 62 | 270 | 125.0 | 125.0 | 0.00 | 0.00 | 0.00 | 52 | 1012.8 |
| 20260502214934 | 62 | 326 | 2.0 | 3.0 | 0.00 | 0.00 | 0.00 | 52 | 1013.0 |
| 20260502214330 | 62 | 270 | 2.0 | 3.0 | 0.00 | 0.00 | 0.00 | 53 | 1013.1 |
| 20260502214125 | 63 | 292 | 2.0 | 4.0 | 0.00 | 0.00 | 0.00 | 54 | 1013.2 |
| 20260502213721 | 63 | 292 | 3.0 | 125.0 | 0.00 | 0.00 | 0.00 | 53 | 1013.1 |
| 20260502213519 | 63 | 270 | 2.0 | 125.0 | 0.00 | 0.00 | 0.00 | 52 | 1013.1 |
| 20260502213417 | 63 | 270 | 125.0 | 125.0 | 0.00 | 0.00 | 0.00 | 51 | 1013.2 |
| 20260502213226 | 63 | 292 | 1.0 | 3.0 | 0.00 | 0.00 | 0.00 | 52 | 1013.0 |
| 20260502213023 | 63 | 270 | 3.0 | 3.0 | 0.00 | 0.00 | 0.00 | 51 | 1013.3 |
| 20260502212821 | 63 | 270 | 2.0 | 3.0 | 0.00 | 0.00 | 0.00 | 52 | 1013.3 |
| 20260502212619 | 63 | 315 | 2.0 | 3.0 | 0.00 | 0.00 | 0.00 | 52 | 1013.2 |
| 20260502212214 | 63 | 292 | 1.0 | 129.0 | 0.00 | 0.00 | 0.00 | 51 | 1013.2 |
| 20260502211940 | 63 | 270 | 2.0 | 3.0 | 0.00 | 0.00 | 0.00 | 51 | 1013.2 |
| 20260502211732 | 63 | 270 | 3.0 | 5.0 | 0.00 | 0.00 | 0.00 | 51 | 1013.4 |
| 20260502211531 | 63 | 270 | 4.0 | 5.0 | 0.00 | 0.00 | 0.00 | 51 | 1013.3 |
| 20260502211329 | 63 | 270 | 3.0 | 127.0 | 0.00 | 0.00 | 0.00 | 50 | 1013.4 |
| 20260502211127 | 63 | 270 | 4.0 | 127.0 | 0.00 | 0.00 | 0.00 | 50 | 1013.4 |
| 20260502211023 | 63 | 315 | 127.0 | 127.0 | 0.00 | 0.00 | 0.00 | 50 | 1013.3 |
| 20260502210907 | 63 | 270 | 3.0 | 5.0 | 0.00 | 0.00 | 0.00 | 50 | 1013.3 |
| 20260502210705 | 63 | 270 | 4.0 | 5.0 | 0.00 | 0.00 | 0.00 | 50 | 1013.3 |
| 20260502210301 | 63 | 270 | 2.0 | 3.0 | 0.00 | 0.00 | 0.00 | 49 | 1013.5 |
| 20260502210058 | 63 | 270 | 2.0 | 2.0 | 0.00 | 0.00 | 0.00 | 49 | 1013.5 |
| 20260502210004 | 63 | 315 | 1.0 | 4.0 | 0.00 | 0.00 | 0.00 | 49 | 1013.2 |
| 20260502205759 | 63 | 0 | 3.0 | 4.0 | 0.00 | 0.00 | 0.00 | 49 | 1013.4 |
| 20260502205559 | 63 | 270 | 2.0 | 4.0 | 0.00 | 0.00 | 0.00 | 49 | 1013.2 |
| 20260502205356 | 63 | 315 | 0.0 | 5.0 | 0.00 | 0.00 | 0.00 | 48 | 1013.4 |
| 20260502204655 | 64 | 270 | 4.0 | 7.0 | 0.00 | 0.00 | 0.00 | 48 | 1013.3 |
| 20260502204539 | 64 | 270 | 4.0 | 7.0 | 0.00 | 0.00 | 0.00 | 48 | 1013.3 |
| 20260502204338 | 64 | 315 | 4.0 | 5.0 | 0.00 | 0.00 | 0.00 | 48 | 1013.4 |
| 20260502204137 | 64 | 303 | 2.0 | 2.0 | 0.00 | 0.00 | 0.00 | 47 | 1013.6 |
| 20260502204006 | 64 | 326 | 1.0 | 4.0 | 0.00 | 0.00 | 0.00 | 48 | 1013.5 |
| 20260502203933 | 64 | 315 | 0.0 | 0.0 | 0.00 | 0.00 | 0.00 | 47 | 1013.5 |
| 20260502203833 | 64 | 326 | 1.0 | 4.0 | 0.00 | 0.00 | 0.00 | 48 | 1013.5 |
| 20260502203634 | 64 | 303 | 0.0 | 4.0 | 0.00 | 0.00 | 0.00 | 47 | 1013.4 |
| 20260502203227 | 64 | 315 | 1.0 | 3.0 | 0.00 | 0.00 | 0.00 | 47 | 1013.4 |
| 20260502202822 | 64 | 270 | 5.0 | 6.0 | 0.00 | 0.00 | 0.00 | 47 | 1013.3 |
| 20260502202620 | 64 | 270 | 4.0 | 5.0 | 0.00 | 0.00 | 0.00 | 46 | 1013.4 |